Le nostre stazioni meteo in Italia

Pubblicità
Il mio iltempo24.it
Monte Terminillo, Italia (16219): Temperatura & dewpoint: 15.06.2019 00:00:00 - 21.06.2019 00:00:00 (CEST)Monte Terminillo, Italia (16219): velocità del vento: 15.06.2019 00:00:00 - 21.06.2019 00:00:00 (CEST)Monte Terminillo, Italia (16219): direzione del vento: 15.06.2019 00:00:00 - 21.06.2019 00:00:00 (CEST)Monte Terminillo, Italia (16219): ore di luce: 15.06.2019 00:00:00 - 21.06.2019 00:00:00 (CEST)
Data & Tempo tt [°C] td [°C] ff [km/h] ff [kn] dd sd [min]
21.06.2019 00:00:00 12,6 2,1 9 5 O 0
20.06.2019 23:00:00 12,7 1,3 9 5 N 0
20.06.2019 22:00:00 13,3 8,8 5 3 N 0
20.06.2019 21:00:00 14,0 10,9 13 7 O 18
20.06.2019 20:00:00 15,5 9,3 9 5 N 42
20.06.2019 19:00:00 16,3 10,7 11 6 N 48
20.06.2019 18:00:00 17,7 8,7 9 5 N 60
20.06.2019 17:00:00 18,8 7,8 9 5 N 60
20.06.2019 16:00:00 19,2 8,8 11 6 ONO 60
20.06.2019 15:00:00 19,1 8,2 11 6 ONO 60
20.06.2019 14:00:00 19,9 4,4 15 8 N -
20.06.2019 13:00:00 - - - - - -
20.06.2019 12:00:00 21,7 8,5 13 7 ONO 54
20.06.2019 11:00:00 21,8 9,1 11 6 ONO 60
20.06.2019 10:00:00 21,3 3,6 9 5 ONO 60
20.06.2019 09:00:00 18,7 2,7 8 4 NNO 60
20.06.2019 08:00:00 12,7 2,5 13 7 N 60
20.06.2019 07:00:00 11,8 1,8 13 7 NNO 54
20.06.2019 06:00:00 11,8 2,4 18 10 NNO 0
20.06.2019 05:00:00 12,0 4,9 21 11 NO 0
20.06.2019 04:00:00 12,2 3,4 16 9 NO 0
20.06.2019 03:00:00 12,4 8,7 15 8 NO 0
20.06.2019 02:00:00 12,8 8,0 16 9 NO 0
20.06.2019 01:00:00 13,1 7,9 16 9 NO 0
20.06.2019 00:00:00 13,6 7,6 9 5 NO 0
19.06.2019 23:00:00 13,2 8,7 8 4 ONO 0
19.06.2019 22:00:00 13,8 9,3 5 3 NNO 0
19.06.2019 21:00:00 14,3 10,3 18 10 NNO 24
19.06.2019 20:00:00 15,2 11,7 16 9 ONO 30
19.06.2019 19:00:00 15,3 11,2 21 11 ONO 0
19.06.2019 18:00:00 16,5 11,8 15 8 N 18
19.06.2019 17:00:00 17,3 11,1 22 12 ONO 18
19.06.2019 16:00:00 17,5 13,0 15 8 N 24
19.06.2019 15:00:00 18,2 11,8 8 4 N 18
19.06.2019 14:00:00 19,8 11,5 15 8 ONO 42
19.06.2019 13:00:00 17,8 12,4 13 7 ONO 48
19.06.2019 12:00:00 20,2 11,0 13 7 ONO 24
19.06.2019 11:00:00 21,7 11,5 11 6 NNO 36
19.06.2019 10:00:00 21,4 10,9 11 6 NNO 54
19.06.2019 09:00:00 18,8 10,3 11 6 NO 60
19.06.2019 08:00:00 13,6 9,2 9 5 N 60
19.06.2019 07:00:00 12,5 8,6 11 6 NNO 36
19.06.2019 06:00:00 12,5 8,7 13 7 NNO 0
19.06.2019 05:00:00 12,6 8,8 11 6 NNO 0
19.06.2019 04:00:00 12,8 8,7 15 8 NNO 0
19.06.2019 03:00:00 13,2 8,8 9 5 NNO 0
19.06.2019 02:00:00 13,0 9,1 2 1 N 0
19.06.2019 01:00:00 13,2 10,8 13 7 N 0
19.06.2019 00:00:00 13,2 10,9 16 9 N 0
18.06.2019 23:00:00 13,0 11,7 15 8 N 0
18.06.2019 22:00:00 13,4 10,4 15 8 NNO 0
18.06.2019 21:00:00 14,5 13,6 18 10 NO 12
18.06.2019 20:00:00 14,9 13,4 4 2 N 5
18.06.2019 19:00:00 14,9 12,4 5 3 N 12
18.06.2019 18:00:00 14,9 13,2 13 7 O 6
18.06.2019 17:00:00 15,5 12,5 15 8 NO 6
18.06.2019 16:00:00 16,3 11,9 11 6 N 0
18.06.2019 15:00:00 17,3 12,1 9 5 NNO 0
18.06.2019 14:00:00 18,1 12,1 8 4 ONO 0
18.06.2019 13:00:00 17,9 10,8 8 4 N 24
18.06.2019 12:00:00 18,6 10,0 5 3 N 48
18.06.2019 11:00:00 20,4 10,4 5 3 N 60
18.06.2019 10:00:00 18,1 10,2 4 2 N 54
18.06.2019 09:00:00 15,4 8,8 4 2 N 60
18.06.2019 08:00:00 13,0 8,1 8 4 N 60
18.06.2019 07:00:00 12,3 7,2 9 5 E 54
18.06.2019 06:00:00 12,6 7,2 5 3 ESE 0
18.06.2019 05:00:00 12,7 6,9 8 4 ESE 0
18.06.2019 04:00:00 12,6 7,2 5 3 SSO 0
18.06.2019 03:00:00 12,5 6,8 4 2 N 0
18.06.2019 02:00:00 12,5 6,8 11 6 ESE 0
18.06.2019 01:00:00 12,0 8,4 18 10 ESE 0
18.06.2019 00:00:00 12,6 7,9 21 11 E 0
17.06.2019 23:00:00 11,9 9,3 24 13 ESE 0
17.06.2019 22:00:00 12,3 9,7 21 11 E 0
17.06.2019 21:00:00 12,8 9,3 21 11 E 0
17.06.2019 20:00:00 13,0 9,1 22 12 E 0
17.06.2019 19:00:00 12,6 10,4 18 10 E 0
17.06.2019 18:00:00 14,4 10,3 24 13 E 0
17.06.2019 17:00:00 15,2 11,3 13 7 N 0
17.06.2019 16:00:00 17,0 11,5 13 7 E 0
17.06.2019 15:00:00 17,3 11,9 11 6 NNO 12
17.06.2019 14:00:00 16,5 8,1 9 5 ONO 12
17.06.2019 13:00:00 15,3 10,4 15 8 SE 18
17.06.2019 12:00:00 14,5 9,1 18 10 N 24
17.06.2019 11:00:00 13,2 10,3 28 15 SE 18
17.06.2019 10:00:00 12,2 10,1 21 11 ESE 18
17.06.2019 09:00:00 12,5 10,3 18 10 N 6
17.06.2019 08:00:00 12,1 9,9 18 10 - 12
17.06.2019 07:00:00 11,8 9,9 22 12 E 6
17.06.2019 06:00:00 11,9 10,6 21 11 N 0
17.06.2019 05:00:00 12,2 10,0 26 14 E 0
17.06.2019 04:00:00 12,2 10,2 24 13 E 0
17.06.2019 03:00:00 12,7 9,8 21 11 E 0
17.06.2019 02:00:00 12,7 6,5 18 10 E 0
17.06.2019 01:00:00 13,1 2,9 18 10 ESE 0
17.06.2019 00:00:00 13,5 0,4 16 9 E 0
16.06.2019 23:00:00 14,0 4,9 11 6 ESE 0
16.06.2019 22:00:00 14,2 9,2 4 2 N 0
16.06.2019 21:00:00 14,3 9,5 8 4 NO 24
16.06.2019 20:00:00 15,2 10,1 9 5 O 60
16.06.2019 19:00:00 16,4 5,6 16 9 N 42
16.06.2019 18:00:00 18,0 6,4 13 7 ONO 60
16.06.2019 17:00:00 18,4 8,0 15 8 - 60
16.06.2019 16:00:00 18,8 7,3 5 3 N 60
16.06.2019 15:00:00 19,2 8,2 8 4 N 60
16.06.2019 14:00:00 20,2 5,7 8 4 N 48
16.06.2019 13:00:00 20,3 7,9 8 4 N 60
16.06.2019 12:00:00 22,3 4,9 5 3 N 60
16.06.2019 11:00:00 23,8 1,6 9 5 N 60
16.06.2019 10:00:00 22,6 1,7 5 3 N 60
16.06.2019 09:00:00 19,2 -3,0 4 2 N 60
16.06.2019 08:00:00 14,0 0,4 13 7 NO 60
16.06.2019 07:00:00 14,3 -8,9 15 8 NO 54
16.06.2019 06:00:00 13,5 6,7 5 3 NNO 0
16.06.2019 05:00:00 15,0 -6,7 15 8 NNO 0
16.06.2019 04:00:00 14,7 -2,9 21 11 NNO 0
16.06.2019 03:00:00 14,2 5,1 22 12 NO 0
16.06.2019 02:00:00 14,7 5,6 29 16 NO 0
16.06.2019 01:00:00 14,3 4,3 18 10 NO 0
16.06.2019 00:00:00 14,9 3,6 18 10 ONO 0
15.06.2019 23:00:00 15,3 6,7 13 7 O 0
15.06.2019 22:00:00 15,8 14,0 11 6 NO 0
15.06.2019 21:00:00 16,3 14,0 11 6 NO 6
15.06.2019 20:00:00 17,3 14,8 11 6 ONO 18
15.06.2019 19:00:00 17,8 13,8 11 6 O 12
15.06.2019 18:00:00 18,6 14,3 8 4 N 42
15.06.2019 17:00:00 20,0 12,3 8 4 N 24
15.06.2019 16:00:00 21,0 10,4 11 6 N 42
15.06.2019 15:00:00 20,8 11,9 8 4 N 60
15.06.2019 14:00:00 21,9 9,8 11 6 N 36
15.06.2019 13:00:00 22,5 7,9 5 3 N 48
15.06.2019 12:00:00 23,3 5,9 5 3 N 60
15.06.2019 11:00:00 22,3 5,0 8 4 SO 60
15.06.2019 10:00:00 19,1 4,4 4 2 N 60
15.06.2019 09:00:00 17,7 1,1 15 8 SSO 36
15.06.2019 08:00:00 16,4 1,8 18 10 S 24
15.06.2019 07:00:00 16,3 1,3 11 6 N 0
15.06.2019 06:00:00 16,6 0,8 22 12 SSO 0
15.06.2019 05:00:00 17,2 2,9 5 3 - 0
15.06.2019 04:00:00 17,5 3,8 9 5 N 0
15.06.2019 03:00:00 18,8 1,0 4 2 N 0
15.06.2019 02:00:00 19,4 -1,2 8 4 N 0
15.06.2019 01:00:00 19,5 -3,6 16 9 SSO 0
15.06.2019 00:00:00 17,9 7,0 21 11 S 0

tt = Temperatura
td = dewpoint
ff = velocità del vento
dd = direzione del vento
sd = ore di luce

Stazioni seguenti

WeatherPro
AMSI
MeteoEarth